Weather History for Rocky Mount, NC

Change the Weather History Date:

Wednesday, April 17, 2013

  Actual Average Record
Temperature  
Mean Temperature 68 °F -  
Max Temperature 84 °F 74 °F 91 °F (2002)
Min Temperature 53 °F 46 °F 30 °F (2005)
Cooling Degree Days 2    
Growing Degree Days 18 (Base 50)    
Moisture  
Dew Point 57 °F    
Average Humidity 77    
Maximum Humidity 100    
Minimum Humidity 47    
Precipitation  
Precipitation 0.01 in - - ()
Sea Level Pressure  
Sea Level Pressure 30.19 in    
Wind  
Wind Speed 2 mph (SSW)    
Max Wind Speed 9 mph    
Max Gust Speed -    
Visibility 7 miles    
Events      
Averages and records for this station are not official NWS values.
T = Trace of Precipitation, MM = Missing Value Source: NWS Daily Summary

Daily Weather History Graph

Daily Weather History Graph

Search for Another Location

Airport:

Trip Planner

Search our weather history database for the weather conditions in past years. The results will help you decide how hot, cold, wet, or windy it might be!

Date:

Astronomy

Apr. 17, 2013 Rise Set
Actual Time 6:35 AM EDT 7:46 PM EDT
Civil Twilight 6:09 AM EDT 8:13 PM EDT
Nautical Twilight 5:37 AM EDT 8:45 PM EDT
Astronomical Twilight 5:05 AM EDT 9:18 PM EDT
Moon 11:51 AM EDT (4/17) 1:19 AM EDT (4/17)
Length of Visible Light 14h 04m
Length of Day
13h 11m
Waxing Crescent, 42% of the Moon is Illuminated
Apr 17
Waxing Crescent
Apr 18
First Quarter
Apr 25
Full
May 2
Last Quarter
May 9
New

Hourly Weather History & Observations

Time (EDT) Temp. Heat Index Dew Point Humidity Pressure Visibility Wind Dir Wind Speed Gust Speed Precip Events Conditions
12:53 AM 62.1 °F - 57.0 °F 84% 30.24 in 10.0 mi Calm Calm - N/A   Clear
1:53 AM 57.9 °F - 55.9 °F 93% 30.23 in 9.0 mi Calm Calm - N/A   Clear
2:53 AM 57.0 °F - 55.0 °F 93% 30.22 in 4.0 mi Calm Calm - N/A   Clear
3:53 AM 55.9 °F - 54.0 °F 93% 30.21 in 4.0 mi Calm Calm - N/A   Clear
4:21 AM 55.4 °F - 53.6 °F 94% 30.21 in 2.5 mi Calm Calm - N/A   Clear
4:35 AM 55.4 °F - 53.6 °F 94% 30.21 in 4.0 mi Calm Calm - N/A   Clear
4:44 AM 55.4 °F - 53.6 °F 94% 30.21 in 2.5 mi Calm Calm - N/A   Clear
4:53 AM 55.9 °F - 55.0 °F 97% 30.20 in 5.0 mi Calm Calm - N/A   Clear
5:04 AM 55.4 °F - 53.6 °F 94% 30.20 in 2.0 mi Calm Calm - N/A   Clear
5:24 AM 55.4 °F - 53.6 °F 94% 30.21 in 1.5 mi Calm Calm - N/A   Clear
5:31 AM 53.6 °F - 53.6 °F 100% 30.21 in 3.0 mi Calm Calm - N/A   Clear
5:53 AM 54.0 °F - 53.1 °F 97% 30.21 in 3.0 mi Calm Calm - N/A   Clear
6:28 AM 53.6 °F - 51.8 °F 94% 30.21 in 1.5 mi Calm Calm - N/A   Clear
6:42 AM 53.6 °F - 51.8 °F 94% 30.22 in 3.0 mi SW 3.5 mph - 0.01 in   Clear
6:49 AM 53.6 °F - 51.8 °F 94% 30.23 in 2.5 mi SSW 3.5 mph - 0.01 in   Clear
6:53 AM 54.0 °F - 53.1 °F 97% 30.23 in 2.5 mi SSW 3.5 mph - 0.01 in   Clear
7:01 AM 55.4 °F - 53.6 °F 94% 30.23 in 4.0 mi South 3.5 mph - N/A   Clear
7:53 AM 61.0 °F - 57.9 °F 90% 30.24 in 8.0 mi SSW 4.6 mph - N/A   Clear
8:53 AM 66.0 °F - 60.1 °F 81% 30.24 in 10.0 mi SSW 6.9 mph - N/A   Clear
10:53 AM 75.0 °F - 61.0 °F 62% 30.21 in 10.0 mi SW 6.9 mph - N/A   Clear
11:53 AM 78.1 °F - 61.0 °F 56% 30.20 in 10.0 mi Variable 3.5 mph - N/A   Clear
12:53 PM 80.1 °F 81.1 °F 61.0 °F 52% 30.18 in 10.0 mi Variable 6.9 mph - N/A   Clear
1:53 PM 81.0 °F 81.7 °F 61.0 °F 50% 30.16 in 10.0 mi SSW 4.6 mph - N/A   Partly Cloudy
2:53 PM 82.9 °F 83.3 °F 61.0 °F 47% 30.14 in 10.0 mi South 8.1 mph - N/A   Mostly Cloudy
3:53 PM 82.0 °F 82.4 °F 60.1 °F 47% 30.13 in 10.0 mi South 4.6 mph - N/A   Scattered Clouds
4:53 PM 82.0 °F 82.4 °F 60.1 °F 47% 30.12 in 10.0 mi SSW 9.2 mph - N/A   Partly Cloudy
5:53 PM 82.0 °F 82.4 °F 60.1 °F 47% 30.12 in 10.0 mi SSW 4.6 mph - N/A   Clear
6:53 PM 80.1 °F 80.7 °F 59.0 °F 48% 30.12 in 10.0 mi South 3.5 mph - N/A   Clear
7:53 PM 72.0 °F - 61.0 °F 68% 30.13 in 10.0 mi Calm Calm - N/A   Clear
8:53 PM 71.1 °F - 60.1 °F 68% 30.14 in 10.0 mi Calm Calm - N/A   Clear
9:53 PM 72.0 °F - 59.0 °F 64% 30.17 in 10.0 mi SSE 5.8 mph - N/A   Clear
10:53 PM 70.0 °F - 57.0 °F 63% 30.18 in 10.0 mi South 6.9 mph - N/A   Clear
11:53 PM 68.0 °F - 55.9 °F 65% 30.19 in 10.0 mi South 6.9 mph - N/A   Mostly Cloudy